Decatur, IL

9:55 AM CST on February 14, 2016 (GMT -0600)
Decatur

Weather History for KDEC - October, 2010

Change the Weather History Date:

Thursday, October 28, 2010

  Actual Average Record
Temperature  
Mean Temperature 41 °F 51 °F  
Max Temperature 48 °F 61 °F 78 °F (1999)
Min Temperature 34 °F 40 °F 26 °F (2013)
Degree Days  
Heating Degree Days 24 15  
Month to date heating degree days 211 300  
Since 1 July heating degree days 247 373  
Cooling Degree Days 0 0  
Month to date cooling degree days 19 14  
Year to date cooling degree days 1493 1043  
Moisture  
Dew Point 31 °F    
Average Humidity 64    
Maximum Humidity 82    
Minimum Humidity 46    
Precipitation  
Precipitation 0.00 in 0.11 in 0.60 in (2014)
Month to date precipitation 0.74 2.94  
Year to date precipitation 33.31 32.14  
Sea Level Pressure  
Sea Level Pressure 30.23 in    
Wind  
Wind Speed 13 mph (WNW)    
Max Wind Speed 23 mph    
Max Gust Speed 33 mph    
Visibility 10 miles    
Events      
T = Trace of Precipitation, MM = Missing Value Source: NWS Daily Summary

Daily Weather History Graph

Daily Weather History Graph

Search for Another Location

Airport or City:

Trip Planner

Search our weather history database for the weather conditions in past years. The results will help you decide how hot, cold, wet, or windy it might be!

Date:

Astronomy

Oct. 28, 2010 Rise Set
Actual Time 7:19 AM CDT 5:58 PM CDT
Civil Twilight 6:51 AM CDT 6:25 PM CDT
Nautical Twilight 6:20 AM CDT 6:57 PM CDT
Astronomical Twilight 5:48 AM CDT 7:29 PM CDT
Moon 10:29 PM CDT (10/28) 12:39 PM CDT (10/28)
Length of Visible Light 11h 34m
Length of Day
10h 38m
Waning Gibbous, 70% of the Moon is Illuminated
Oct 28
Waning Gibbous
Oct 30
Last Quarter
Nov 5
New
Nov 13
First Quarter
Nov 21
Full

Hourly Weather History & Observations

Time (CDT) Temp. Windchill Dew Point Humidity Pressure Visibility Wind Dir Wind Speed Gust Speed Precip Events Conditions
12:54 AM 48.0 °F - 28.9 °F 48% 29.99 in 10.0 mi West 16.1 mph 26.5 mph N/A   Clear
1:54 AM 45.0 °F 37.6 °F 28.9 °F 53% 30.01 in 10.0 mi West 17.3 mph 28.8 mph N/A   Clear
2:54 AM 43.0 °F 35.7 °F 30.0 °F 60% 30.04 in 10.0 mi WNW 15.0 mph 24.2 mph N/A   Clear
3:54 AM 42.1 °F 34.9 °F 30.0 °F 62% 30.05 in 10.0 mi West 13.8 mph 21.9 mph N/A   Clear
4:54 AM 42.1 °F 34.9 °F 30.9 °F 65% 30.08 in 10.0 mi West 13.8 mph 21.9 mph N/A   Overcast
5:54 AM 42.1 °F 34.5 °F 30.9 °F 65% 30.11 in 10.0 mi WNW 15.0 mph 23.0 mph N/A   Overcast
6:47 AM 42.8 °F 35.8 °F 30.2 °F 61% 30.14 in 10.0 mi WNW 13.8 mph - N/A   Overcast
6:54 AM 42.1 °F 33.9 °F 30.9 °F 65% 30.14 in 10.0 mi WNW 17.3 mph 25.3 mph N/A   Overcast
7:54 AM 42.1 °F 34.5 °F 30.9 °F 65% 30.16 in 10.0 mi NW 15.0 mph 26.5 mph N/A   Overcast
8:54 AM 43.0 °F 35.1 °F 30.9 °F 62% 30.21 in 10.0 mi WNW 17.3 mph 24.2 mph N/A   Overcast
9:54 AM 43.0 °F 35.4 °F 30.9 °F 62% 30.24 in 10.0 mi WNW 16.1 mph 31.1 mph N/A   Overcast
10:37 AM 44.6 °F 36.6 °F 30.2 °F 57% 30.24 in 10.0 mi WNW 19.6 mph 27.6 mph N/A   Overcast
10:54 AM 44.1 °F 36.5 °F 30.9 °F 60% 30.25 in 10.0 mi WNW 17.3 mph 27.6 mph N/A   Overcast
11:54 AM 44.1 °F 37.1 °F 32.0 °F 63% 30.26 in 10.0 mi WNW 15.0 mph 28.8 mph N/A   Overcast
12:03 PM 44.6 °F 37.8 °F 32.0 °F 61% 30.26 in 10.0 mi WNW 15.0 mph 21.9 mph N/A   Overcast
12:54 PM 45.0 °F 37.9 °F 32.0 °F 60% 30.27 in 10.0 mi WNW 16.1 mph 23.0 mph N/A   Overcast
1:42 PM 46.4 °F 40.1 °F 32.0 °F 57% 30.27 in 10.0 mi WNW 15.0 mph 21.9 mph N/A   Overcast
1:54 PM 46.0 °F 39.0 °F 32.0 °F 58% 30.27 in 10.0 mi WNW 17.3 mph 21.9 mph N/A   Overcast
2:54 PM 46.0 °F 39.9 °F 32.0 °F 58% 30.28 in 10.0 mi NW 13.8 mph 23.0 mph N/A   Overcast
3:54 PM 46.0 °F 41.0 °F 33.1 °F 61% 30.29 in 10.0 mi WNW 10.4 mph 20.7 mph N/A   Overcast
4:54 PM 46.0 °F 39.0 °F 32.0 °F 58% 30.31 in 10.0 mi WNW 17.3 mph 24.2 mph N/A   Overcast
5:54 PM 45.0 °F 37.9 °F 30.0 °F 56% 30.32 in 10.0 mi WNW 16.1 mph 24.2 mph N/A   Overcast
6:54 PM 44.6 °F 38.4 °F 30.2 °F 57% 30.33 in 10.0 mi NW 12.7 mph 21.9 mph N/A   Overcast
7:54 PM 41.0 °F 34.3 °F 30.0 °F 65% 30.37 in 10.0 mi NW 11.5 mph - N/A   Scattered Clouds
8:54 PM 39.0 °F 34.0 °F 30.0 °F 70% 30.37 in 10.0 mi WNW 6.9 mph - N/A   Clear
9:54 PM 37.9 °F 34.4 °F 30.0 °F 73% 30.37 in 10.0 mi WNW 4.6 mph - N/A   Clear
10:54 PM 36.0 °F 31.1 °F 30.0 °F 79% 30.38 in 10.0 mi WNW 5.8 mph - N/A   Clear
11:54 PM 35.1 °F 31.0 °F 28.9 °F 78% 30.39 in 10.0 mi WNW 4.6 mph - N/A   Clear